Regional Weather Roundup
Issued by NWS Green Bay, WI

Home | Current Version | Previous Version | Graphics & Text | Print | Product List | Glossary Off
Versions: 1 2 3 4 5 6 7 8 9 10 11 12 13 14 15 16 17 18 19 20 21 22 23 24 25 26 27 28 29 30 31 32 33 34 35 36 37 38 39 40 41 42 43 44 45 46 47 48 49 50

000
ASUS43 KGRB 232100
RWRGRB

NORTH-CENTRAL AND NORTHEAST WISCONSIN REGIONAL WEATHER ROUNDUP
NATIONAL WEATHER SERVICE GREEN BAY WI
400 PM CDT SAT MAY 23 2015

WIZ005-009-010>012-018-019-232200-
NORTH CENTRAL WISCONSIN

CITY           SKY/WX    TMP DP  RH WIND       PRES   REMARKS
IRONWOOD       SUNNY     75  34  22 SW7       30.12F
MANITOWISH WTR NOT AVBL
ARBOR VITAE    NOT AVBL
EAGLE RIVER    NOT AVBL
LAND O LAKES   NOT AVBL
RHINELANDER    MOSUNNY   75  35  23 SW15      30.20F
PHILLIPS       NOT AVBL
ANTIGO         NOT AVBL
TOMAHAWK       NOT AVBL
MERRILL        NOT AVBL
$$

WIZ013-073-232200-
NORTHEAST WISCONSIN

CITY           SKY/WX    TMP DP  RH WIND       PRES   REMARKS
IRON MOUNTAIN  SUNNY     79  29  16 SW13      30.16F
MARINETTE      MOSUNNY   77  39  25 S14       30.18F
$$

WIZ017-030-035>037-045-232200-
CENTRAL WISCONSIN

CITY           SKY/WX    TMP DP  RH WIND       PRES   REMARKS
MEDFORD        NOT AVBL
WAUSAU         PTSUNNY   74  39  28 W15       30.19F
MOSINEE        MOSUNNY   73  39  29 W3        30.22F
MARSHFIELD     PTSUNNY   75  39  27 SW7       30.20F
WISC RAPIDS    MOSUNNY   78  33  19 SW9       30.21F
STEVENS POINT  NOT AVBL
WAUPACA        NOT AVBL
SHAWANO        NOT AVBL
CLINTONVILLE   NOT AVBL
$$

WIZ038-039-048-051-232200-
FOX VALLEY

CITY           SKY/WX    TMP DP  RH WIND       PRES   REMARKS
NWS GREEN BAY  PTSUNNY   78  37  22 SW9       30.21F
APPLETON       MOSUNNY   75  37  25 S9        30.22F
OSHKOSH        MOSUNNY   76  38  25 SW5       30.21F
FOND DU LAC    MOSUNNY   79  37  22 S6        30.21F
$$

WIZ022-050-052-232200-
EAST CENTRAL WISCONSIN

CITY           SKY/WX    TMP DP  RH WIND       PRES   REMARKS
STURGEON BAY   SUNNY     72  37  28 S16       30.24F
MANITOWOC      NOT AVBL
SHEBOYGAN      SUNNY     73  40  30 S12G20    30.24F
$$

LMZ563-521-522-541>543-232200-
LAKESHORE

STATION/POSITION TIME  TEMP    WIND        PRES    VSBY  WAVE
                       AIR SEA DIR/SP/G                  HT/PER
                 (UTC) (F)     (DEG/KT/KT) (MB)    (MI)  (FT/S)
SHEBOYGAN LKSHOR 2000   47     170/ 14/ 15 1025.1F
KEWAUNEE LKSHORE 2000   50     180/ 13/ 15 1023.6F
NORTHPORT PIER   2000          170/  7/ 15 1023.4
N MID LAKE BUOY  1950   42 36  200/ 14/ 16 1024.6F         3/ 4
SISTER BAY LKSHO 2002   74     190/ 18/ 20   N/A
CHAMBERS ISLAND  2000   71     180/  7/ 14 1023.0F
MENOMINEE LKSHOR 2000   70     180/ 11/ 16 1023.4F
$$


USA.gov is the U.S. government's official web portal to all federal, state and local government web resources and services.